Voltar ao catálogo

OPS 4682 DEB

AtivoPO
NORAD 18965·DEBRIS·🇺🇸 United States

Lançado Apr 3, 1965 de Vandenberg Space Force Base

Loading…

Próximas Passagens (próximas 24 horas)

TLE

AtualizadoSource: Space-Track

Época: Sep 14, 2026, 13:34 UTC

1 18965U 65027AN  26257.56549421  .00000017  00000-0  30461-4 0  9993
2 18965  90.2811  28.2787 0047068 200.2177 292.4570 12.99898083962104

Acompanhe OPS 4682 DEB em tempo real com AllMySat

Download on the App Store